Date String (YYYY-MM-DD hh:mm:ss) UTC,Instrument flags,Ambient pressure (hPa),Sample flow (lpm),Bypass flow (lpm),Sample temperature (°C),Ambient temperature (°C),ASC tube jacket temperature (°C),LED temperature (°C),Box temperature (°C),Sample RH (%),Span deviation,Mass concentration (μg/m³),Mass concentration (μg/m³),Mass concentration (μg/m³)
DateTimeUTC,F1_M11,P_M11,Q1_M11,Q2_M11,T1_M11,T2_M11,T3_M11,T4_M11,T5_M11,U1_M11,ZSPAN_M11,X0_M11,X2_M11,X1_M11
2022-04-06 08:00:00,,0824.6,5.00,0.00,22.4,23.2,00.0,31.2,24.3,05.4,0000.0,0006.67,0001.66,0000.82
2022-04-06 08:01:00,,0824.6,4.98,0.00,22.4,22.8,00.0,31.2,24.2,05.4,0000.0,0006.52,0001.62,0000.80
2022-04-06 08:02:00,,0824.6,5.00,0.00,22.3,22.5,00.0,31.2,24.2,05.4,0000.0,0006.31,0001.54,0000.79
2022-04-06 08:03:00,,0824.7,5.00,0.00,22.3,22.2,00.0,31.2,24.1,05.4,0000.0,0006.39,0001.52,0000.78
2022-04-06 08:04:00,,0824.6,5.00,0.00,22.3,22.0,00.0,31.2,24.0,05.5,0000.0,0006.42,0001.52,0000.77
2022-04-06 08:05:00,,0824.7,5.00,0.00,22.3,21.8,00.0,31.2,24.0,05.5,0000.0,0006.55,0001.51,0000.77
2022-04-06 08:06:00,,0824.7,4.99,0.00,22.2,21.6,00.0,31.2,23.9,05.5,0000.0,0006.59,0001.55,0000.76
2022-04-06 08:07:00,,0824.8,5.00,0.00,22.2,21.5,00.0,31.2,23.9,05.5,0000.0,0006.09,0001.56,0000.78
2022-04-06 08:08:00,,0824.7,5.00,0.00,22.2,21.4,00.0,31.2,23.8,05.5,0000.0,0004.14,0001.51,0000.78
2022-04-06 08:09:00,,0824.7,5.00,0.00,22.2,21.3,00.0,31.2,23.8,05.6,0000.0,0004.10,0001.50,0000.79
2022-04-06 08:10:00,,0824.6,5.01,0.00,22.2,21.3,00.0,31.2,23.8,05.6,0000.0,0004.91,0001.52,0000.79
2022-04-06 08:11:00,,0824.7,4.99,0.00,22.2,21.3,00.0,31.2,23.8,05.3,0000.0,0005.41,0001.52,0000.79
2022-04-06 08:12:00,,0824.7,5.00,0.00,22.1,21.2,00.0,31.2,23.8,05.3,0000.0,0006.26,0001.59,0000.79
2022-04-06 08:13:00,,0824.6,5.00,0.00,22.1,21.2,00.0,31.2,23.8,05.5,0000.0,0006.67,0001.64,0000.78
2022-04-06 08:14:00,,0824.7,5.00,0.00,22.1,21.1,00.0,31.2,23.7,05.5,0000.0,0006.44,0001.64,0000.78
2022-04-06 08:15:00,,0824.6,5.00,0.00,22.1,21.1,00.0,31.2,23.7,05.5,0000.0,0006.52,0001.65,0000.78
2022-04-06 08:16:00,,0824.6,5.01,0.00,22.0,21.1,00.0,31.2,23.7,05.5,0000.0,0006.35,0001.67,0000.78
2022-04-06 08:17:00,,0824.8,5.02,0.00,22.0,21.0,00.0,31.1,23.6,05.6,0000.0,0006.18,0001.66,0000.77
2022-04-06 08:18:00,,0824.8,4.99,0.00,22.0,21.0,00.0,31.1,23.6,05.6,0000.0,0006.34,0001.72,0000.77
2022-04-06 08:19:00,,0824.8,5.00,0.00,22.0,21.0,00.0,31.1,23.6,05.7,0000.0,0006.19,0001.76,0000.76
2022-04-06 08:20:00,,0824.8,4.99,0.00,21.9,20.9,00.0,31.1,23.6,05.6,0000.0,0006.39,0001.79,0000.75
2022-04-06 08:21:00,,0824.9,5.00,0.00,21.9,21.0,00.0,31.1,23.6,05.7,0000.0,0005.87,0001.82,0000.75
2022-04-06 08:22:00,,0824.9,4.99,0.00,22.0,21.7,00.0,31.1,23.8,05.7,0000.0,0005.86,0001.85,0000.74
2022-04-06 08:23:00,,0824.9,5.00,0.00,22.2,22.6,00.0,31.1,24.1,05.7,0000.0,0005.52,0001.84,0000.74
2022-04-06 08:24:00,,0824.8,5.01,0.00,22.3,23.1,00.0,31.2,24.3,05.7,0000.0,0005.04,0001.82,0000.75
2022-04-06 08:25:00,,0824.8,5.00,0.00,22.3,22.8,00.0,31.2,24.3,05.7,0000.0,0005.06,0001.82,0000.76
2022-04-06 08:26:00,,0824.9,4.99,0.00,22.3,22.5,00.0,31.2,24.2,05.7,0000.0,0005.05,0001.84,0000.76
2022-04-06 08:27:00,,0824.9,4.99,0.00,22.3,22.2,00.0,31.2,24.1,05.7,0000.0,0004.81,0001.78,0000.74
2022-04-06 08:28:00,,0824.9,5.00,0.00,22.3,22.0,00.0,31.2,24.0,05.7,0000.0,0005.59,0001.73,0000.73
2022-04-06 08:29:00,,0824.9,5.01,0.00,22.3,21.8,00.0,31.2,23.9,05.6,0000.0,0005.48,0001.67,0000.73
2022-04-06 08:30:00,,0824.9,5.00,0.00,22.2,21.6,00.0,31.2,23.8,05.4,0000.0,0005.30,0001.65,0000.72
2022-04-06 08:31:00,,0824.9,5.01,0.00,22.2,21.4,00.0,31.2,23.8,05.4,0000.0,0005.30,0001.67,0000.72
2022-04-06 08:32:00,,0824.9,5.00,0.00,22.2,21.3,00.0,31.2,23.8,05.5,0000.0,0005.24,0001.67,0000.72
2022-04-06 08:33:00,,0824.9,5.00,0.00,22.1,21.2,00.0,31.2,23.8,05.5,0000.0,0004.75,0001.63,0000.72
2022-04-06 08:34:00,,0824.8,5.01,0.00,22.1,21.2,00.0,31.2,23.8,05.5,0000.0,0004.53,0001.63,0000.72
2022-04-06 08:35:00,,0824.9,5.00,0.00,22.1,21.1,00.0,31.2,23.7,05.4,0000.0,0004.73,0001.73,0000.72
2022-04-06 08:36:00,,0824.9,5.00,0.00,22.1,21.0,00.0,31.2,23.6,05.5,0000.0,0004.76,0001.72,0000.71
2022-04-06 08:37:00,,0824.9,5.00,0.00,22.0,20.9,00.0,31.1,23.6,05.6,0000.0,0004.83,0001.70,0000.71
2022-04-06 08:38:00,,0824.9,5.00,0.00,22.0,20.9,00.0,31.1,23.6,05.6,0000.0,0004.79,0001.68,0000.71
2022-04-06 08:39:00,,0824.9,5.00,0.00,22.0,20.9,00.0,31.1,23.5,05.7,0000.0,0004.01,0001.67,0000.70
2022-04-06 08:40:00,,0824.9,4.99,0.00,21.9,20.9,00.0,31.1,23.5,05.7,0000.0,0004.02,0001.70,0000.70
2022-04-06 08:41:00,,0824.9,5.01,0.00,22.0,21.5,00.0,31.1,23.8,05.6,0000.0,0004.24,0001.71,0000.71
2022-04-06 08:42:00,,0824.9,5.00,0.00,22.2,22.4,00.0,31.2,24.1,05.6,0000.0,0004.21,0001.71,0000.71
2022-04-06 08:43:00,,0824.9,5.01,0.00,22.3,23.0,00.0,31.2,24.3,05.5,0000.0,0004.88,0001.68,0000.71
2022-04-06 08:44:00,,0824.9,5.00,0.00,22.3,22.8,00.0,31.2,24.2,05.4,0000.0,0005.10,0001.67,0000.71
2022-04-06 08:45:00,,0824.8,4.99,0.00,22.3,22.5,00.0,31.2,24.1,05.4,0000.0,0005.61,0001.71,0000.71
2022-04-06 08:46:00,,0824.8,4.99,0.00,22.3,22.2,00.0,31.2,24.0,05.4,0000.0,0005.57,0001.62,0000.71
2022-04-06 08:47:00,,0824.9,5.01,0.00,22.2,21.9,00.0,31.2,24.0,05.3,0000.0,0005.54,0001.59,0000.70
2022-04-06 08:48:00,,0824.9,5.01,0.00,22.2,21.7,00.0,31.2,23.9,05.2,0000.0,0005.42,0001.58,0000.70
2022-04-06 08:49:00,,0824.8,5.01,0.00,22.2,21.5,00.0,31.2,23.8,05.3,0000.0,0006.10,0001.64,0000.71
2022-04-06 08:50:00,,0824.9,5.00,0.00,22.1,21.3,00.0,31.2,23.7,05.3,0000.0,0006.05,0001.65,0000.73
2022-04-06 08:51:00,,0824.8,5.00,0.00,22.1,21.2,00.0,31.2,23.7,05.4,0000.0,0006.61,0001.66,0000.72
2022-04-06 08:52:00,,0824.9,5.00,0.00,22.1,21.1,00.0,31.2,23.7,05.4,0000.0,0006.44,0001.64,0000.72
2022-04-06 08:53:00,,0824.9,5.00,0.00,22.0,21.0,00.0,31.2,23.6,05.4,0000.0,0006.55,0001.62,0000.70
2022-04-06 08:54:00,,0824.9,5.00,0.00,22.0,21.0,00.0,31.1,23.6,05.4,0000.0,0005.96,0001.60,0000.69
2022-04-06 08:55:00,,0824.9,5.00,0.00,22.0,20.9,00.0,31.1,23.6,05.5,0000.0,0005.58,0001.61,0000.69
2022-04-06 08:56:00,,0824.9,5.00,0.00,22.0,20.9,00.0,31.1,23.6,05.5,0000.0,0005.17,0001.59,0000.69
2022-04-06 08:57:00,,0824.9,5.00,0.00,22.0,20.9,00.0,31.1,23.6,05.5,0000.0,0005.69,0001.63,0000.70
2022-04-06 08:58:00,,0824.8,5.00,0.00,21.9,20.9,00.0,31.1,23.6,05.4,0000.0,0007.23,0001.65,0000.71
2022-04-06 08:59:00,,0824.6,5.01,0.00,22.0,21.4,00.0,31.1,23.7,05.0,0000.0,0007.08,0001.61,0000.71
